Location: Baix
(44.7118°N, 4.7648°E)
Time: 08:28:51
(UTC+00:00)

A-11 Canister half - Pass Details

Date: 02 December 2020
Orbit: 1517 x 1683 km, 47.2° (Epoch: 22 January)

Event Time Altitude Azimuth Distance (km) Brightness Sun altitude
Rises 17:36:51 0° 294° (WNW) 4,926 12.5 -16.4°
Reaches altitude 10° 17:40:27 10° 285° (WNW) 3,944 12.1 -17.0°
Maximum altitude 17:48:56 32° 228° (SW) 2,605 10.8 -18.5°
Drops below altitude 10° 17:57:23 10° 170° (S) 3,913 11.1 -20.0°
Sets 18:00:57 0° 161° (SSE) 4,882 11.6 -20.6°
